Погода в Приволжье

Россия / Самарская область     52°51′29″N   48°35′31″E
темп.,
°C
ветер,
м/с
пор.,
м/с
влажн.,
%
обл.,
%
осадки,
мм/ч
давл.,
гПа
погр.,
м
21 января, чт
чт2101:00−22зюз239237 0.0 102220
04:00−22зюз339319 0.0 102227
07:00−22зюз33950 0.0 102328
10:00−20юз349610 0.0 102459
13:00−15юз479355 0.0 1023250
16:00−12зюз489378 0.0 1022232
19:00−11юз4992100 0.0 1023210
22:00−11зюз51090100 0.0 1022320
22 января, пт
пт2201:00−12юз61095100 0.6 1020376
04:00−12юз51094100 1.8 1019494
07:00−13юз3695100 0.3 1019146
10:00−15з2391100 0.3 102026
13:00−12зюз239196 0.0 1020115
16:00−12юз229198 0.0 102021
19:00−11ю1197100 0.3 102030
22:00−10юв229699 0.9 102168
23 января, сб
сб2301:00−10юв229699 0.4 102246
04:00−10юв2396100 1.1 1022105
07:00−9юв2396100 0.4 1023100
10:00−7ююв2496100 0.6 1023141
13:00−4ю2497100 0.3 1023153
16:000ююз4799100 0.6 1022314
19:00+1ююз4998100 0.0 1022301
22:00+1юз4999100 0.1 1023299
24 января, вс
вс2401:00+1юз4998100 0.0 1023311
04:00+1ююз4999100 0.0 1024289
07:000ююз4894100 0.0 1024261
10:00−1ююз5891100 0.0 1026254
13:00−1ююз5990100 0.0 1026280
16:00−2ююз5991100 0.0 1026282
19:00−3ююз51095100 0.0 1028262
22:00−3ююз5109697 0.0 1028253
25 января, пн
пн2501:00−2ююз6109688 0.0 1028403
04:00−4ю499794 0.0 1029273
07:00−5ююв3897100 0.0 1028200
10:00−5ююв4997100 0.0 1029329
13:00−2ююв6996100 0.0 1027563
16:00−1ююв61094100 0.1 1026609
19:00−2ю61094100 0.0 1026510
22:00−2ю51095100 0.0 1026533